Location: Newark
(13.4500°N, 15.3000°W)
Time: 02:18:15
(UTC+00:00)

N. Korean satellite - Visible Passes

Search period start: 25 September 2020 00:00
Search period end: 05 October 2020 00:00
Orbit: 455 x 503 km, 97.2° (Epoch: 24 September)

Date Brightness Start Highest point End Pass type
(mag) Time Alt. Az. Time Alt. Az. Time Alt. Az.
25 Sep 9.9 05:31:24 10° ENE 05:33:06 13° E 05:34:47 10° SE visible
27 Sep 7.0 06:10:52 10° NNE 06:14:22 64° E 06:17:49 10° S visible
28 Sep 9.2 05:45:33 10° NE 05:48:22 22° E 05:51:08 10° SSE visible
30 Sep 6.4 06:26:06 10° N 06:29:34 66° WNW 06:33:00 10° SSW visible
01 Oct 8.0 06:00:16 10° NNE 06:03:35 40° E 06:06:50 10° S visible
02 Oct 9.8 05:35:27 10° ENE 05:37:32 15° E 05:39:36 10° SE visible
04 Oct 6.6 06:15:17 10° NNE 06:18:45 78° E 06:22:10 10° S visible
